Location: Doschendorf
(50.0069°N, 11.0602°E)
Time: 20:55:43
(UTC+00:00)

NOAA 12 - Pass Details

Date: 23 February 2020
Orbit: 795 x 815 km, 98.5° (Epoch: 09 April)

Event Time Altitude Azimuth Distance (km) Brightness Sun altitude
Rises 04:27:43 0° 29° (NNE) 3,355 7.8 -17.5°
Reaches altitude 10° 04:31:13 10° 53° (NE) 2,416 7.4 -17.0°
Maximum altitude 04:34:08 15° 86° (E) 2,097 7.5 -16.5°
Drops below altitude 10° 04:37:01 10° 119° (ESE) 2,403 7.4 -16.0°
Sets 04:40:29 0° 143° (SE) 3,326 7.8 -15.5°
